FW3222 Weather Reports


time (UTC)temp
C
wind
direction
speed
KPH
gust
KPH
rain 1hr
cm
rain 24hr
cm
rain mn
cm
humidity
%
barometer
mb
20260507111144 10 287 0.0 8.0 0.00 0.74 0.00 40 1013.7
20260507110840 10 327 0.0 8.0 0.00 0.74 0.00 39 1013.7
20260507110539 10 338 0.0 8.0 0.00 0.74 0.00 40 1013.6
20260507110229 10 341 0.0 8.0 0.00 0.74 0.00 41 1013.7
20260507105927 10 62 0.0 6.4 0.00 0.74 0.00 39 1013.5
20260507104738 10 241 0.0 4.8 0.00 0.74 0.00 42 1013.4
20260507104006 10 290 0.0 4.8 0.00 0.74 0.00 44 1013.3
20260507103706 10 321 0.0 8.0 0.00 0.74 0.00 42 1013.3
20260507103352 10 17 0.0 8.0 0.00 0.74 0.00 42 1013.3
20260507103052 10 22 0.0 8.0 0.00 0.74 0.00 42 1013.2
20260507102739 10 30 0.0 1.6 0.00 0.74 0.00 43 1013.1
20260507102442 10 330 0.0 1.6 0.00 0.74 0.00 42 1013.2
20260507102136 10 347 0.0 1.6 0.00 0.74 0.00 44 1013.1
20260507101838 10 347 0.0 1.6 0.00 0.74 0.00 42 1013.2
20260507101542 10 11 0.0 1.6 0.00 0.74 0.00 42 1013.2
20260507101240 10 313 0.0 1.6 0.00 0.74 0.00 42 1013.1
20260507100938 10 313 0.0 1.6 0.00 0.74 0.00 43 1013.0
20260507100639 10 304 1.6 3.2 0.00 0.74 0.00 42 1013.0
20260507100330 10 294 0.0 3.2 0.00 0.74 0.00 42 1012.8
20260507100032 10 288 0.0 8.0 0.00 0.74 0.00 43 1012.8
20260507095724 10 328 0.0 8.0 0.00 0.74 0.00 41 1012.9
20260507095414 10 11 0.0 0.0 0.00 0.74 0.00 43 1013.0
20260507095118 10 13 0.0 4.8 0.00 0.74 0.00 42 1013.0
20260507094803 10 311 0.0 3.2 0.00 0.74 0.00 43 1012.8
20260507094503 10 288 0.0 3.2 0.00 0.74 0.00 43 1012.8
20260507094201 10 310 0.0 0.0 0.00 0.74 0.00 43 1012.8
20260507093900 10 304 1.6 9.7 0.00 0.74 0.00 43 1012.7
20260507093602 10 307 1.6 9.7 0.00 0.74 0.00 43 1012.7
20260507093259 10 282 1.6 9.7 0.00 0.74 0.00 43 1012.8
20260507092951 10 292 1.6 9.7 0.00 0.74 0.00 43 1012.8
20260507092228 10 324 0.0 9.7 0.00 0.74 0.00 44 1012.5
20260507091922 10 24 0.0 9.7 0.00 0.74 0.00 45 1012.5
20260507091618 10 248 0.0 4.8 0.00 0.74 0.00 44 1012.5
20260507091313 10 271 0.0 4.8 0.00 0.74 0.00 44 1012.4
20260507091002 10 343 0.0 4.8 0.00 0.74 0.00 43 1012.5
20260507090651 10 307 0.0 3.2 0.00 0.74 0.00 44 1012.4
20260507085933 10 278 0.0 9.7 0.00 0.74 0.00 44 1012.3
20260507084748 10 325 1.6 8.0 0.00 0.74 0.00 45 1012.4
20260507084449 10 270 1.6 8.0 0.00 0.74 0.00 45 1012.3
20260507083720 10 348 0.0 8.0 0.00 0.74 0.00 46 1012.3
20260507083412 10 21 0.0 8.0 0.00 0.74 0.00 47 1012.5
20260507082651 10 337 0.0 0.0 0.00 0.74 0.00 48 1012.3
20260507082355 11 336 0.0 0.0 0.00 0.74 0.00 47 1012.3
20260507081207 11 355 0.0 0.0 0.00 0.74 0.00 49 1012.3
20260507080908 11 291 0.0 0.0 0.00 0.74 0.00 46 1012.4
20260507080611 11 291 0.0 0.0 0.00 0.74 0.00 47 1012.4
20260507080309 11 11 0.0 3.2 0.00 0.74 0.00 49 1012.5
20260507080007 11 42 0.0 3.2 0.00 0.74 0.00 49 1012.4
20260507075708 11 19 0.0 3.2 0.00 0.74 0.00 47 1012.4
20260507075402 11 38 0.0 1.6 0.00 0.74 0.00 48 1012.5
20260507075054 11 5 0.0 0.0 0.00 0.74 0.00 48 1012.4
20260507074758 11 51 0.0 0.0 0.00 0.74 0.00 51 1012.4
20260507074032 11 61 0.0 0.0 0.00 0.74 0.00 49 1012.4
20260507073726 11 78 0.0 0.0 0.00 0.74 0.00 49 1012.3
20260507073423 11 36 0.0 3.2 0.00 0.74 0.00 50 1012.4
20260507073125 11 38 0.0 3.2 0.00 0.74 0.00 51 1012.4
20260507072820 11 40 0.0 3.2 0.00 0.74 0.00 48 1012.5
20260507072515 11 11 0.0 9.7 0.00 0.74 0.00 47 1012.5
20260507072210 11 0 0.0 9.7 0.00 0.74 0.00 48 1012.5
20260507071453 11 48 0.0 9.7 0.00 0.74 0.00 49 1012.4
20260507071156 11 239 0.0 9.7 0.00 0.74 0.00 49 1012.5
20260507070855 11 355 0.0 9.7 0.00 0.74 0.00 49 1012.4
20260507070542 11 0 0.0 4.8 0.00 0.74 0.00 50 1012.3
20260507070244 11 82 0.0 0.0 0.00 0.74 0.00 51 1012.3
20260507065940 11 197 1.6 9.7 0.00 0.74 0.00 51 1012.4
20260507065627 11 0 0.0 9.7 0.00 0.74 0.00 52 1012.4
20260507065331 11 355 1.6 9.7 0.00 0.74 0.00 51 1012.4
20260507065035 11 15 0.0 6.4 0.00 0.74 0.00 52 1012.4
20260507064727 11 345 1.6 6.4 0.00 0.74 0.00 52 1012.4
20260507064431 11 309 1.6 6.4 0.00 0.74 0.00 51 1012.5
20260507064135 11 265 1.6 9.7 0.00 0.74 0.00 52 1012.5
20260507063826 11 335 1.6 9.7 0.00 0.74 0.00 52 1012.3
20260507063530 11 309 1.6 9.7 0.00 0.74 0.00 54 1012.3
20260507063220 11 344 1.6 14.5 0.00 0.74 0.00 54 1012.3
20260507062914 11 242 1.6 14.5 0.00 0.74 0.00 55 1012.4
20260507062603 11 16 3.2 14.5 0.00 0.74 0.00 56 1012.3
20260507062300 11 0 4.8 14.5 0.00 0.74 0.00 56 1012.4
20260507062004 11 34 4.8 14.5 0.00 0.74 0.00 56 1012.5
20260507061652 11 311 3.2 14.5 0.00 0.74 0.00 57 1012.3
20260507060912 11 293 1.6 11.3 0.00 0.74 0.00 61 1012.3
20260507060609 11 310 1.6 11.3 0.00 0.74 0.00 62 1012.3
20260507060306 12 344 1.6 11.3 0.00 0.74 0.00 62 1012.3
20260507060003 12 340 3.2 11.3 0.00 0.74 0.00 63 1012.3
20260507054808 12 287 1.6 11.3 0.00 0.74 0.00 62 1012.3
20260507054458 12 351 1.6 11.3 0.00 0.74 0.00 62 1012.3
20260507054146 11 271 1.6 11.3 0.00 0.74 0.00 62 1012.3
20260507053415 11 298 1.6 11.3 0.00 0.74 0.00 63 1012.3
20260507053118 12 312 1.6 6.4 0.00 0.74 0.00 64 1012.4
20260507052402 12 355 0.0 6.4 0.00 0.74 0.00 65 1012.3
20260507052053 12 294 0.0 1.6 0.00 0.74 0.00 66 1012.4
20260507051740 12 298 0.0 3.2 0.00 0.74 0.00 66 1012.4
20260507051438 12 297 0.0 3.2 0.00 0.74 0.00 66 1012.3
20260507051140 12 298 0.0 1.6 0.00 0.74 0.00 66 1012.2
20260507050840 12 275 0.0 1.6 0.00 0.74 0.00 65 1012.2
20260507050540 12 277 0.0 0.0 0.00 0.74 0.00 65 1012.1
20260507050228 12 244 0.0 4.8 0.00 0.74 0.00 65 1012.3
20260507045507 12 275 1.6 8.0 0.00 0.74 0.00 65 1012.3
20260507045154 12 234 0.0 8.0 0.00 0.74 0.00 63 1012.1
20260507044014 12 343 1.6 6.4 0.00 0.74 0.00 63 1012.2
20260507043714 12 17 1.6 6.4 0.00 0.74 0.00 62 1012.2
20260507043415 12 350 1.6 6.4 0.00 0.74 0.00 61 1012.3
20260507043104 12 325 1.6 6.4 0.00 0.74 0.00 61 1012.5
20260507042758 12 333 1.6 6.4 0.00 0.74 0.00 61 1012.5
20260507042453 12 355 1.6 6.4 0.00 0.74 0.00 61 1012.6
20260507042140 12 312 1.6 11.3 0.00 0.74 0.00 62 1012.6
20260507041833 13 323 1.6 11.3 0.00 0.74 0.00 62 1012.6
20260507041105 13 15 1.6 11.3 0.00 0.74 0.00 61 1012.3
20260507040806 13 261 1.6 11.3 0.00 0.74 0.00 60 1012.4
20260507040456 13 347 1.6 11.3 0.00 0.74 0.00 60 1012.3
20260507035738 13 319 1.6 0.0 0.00 0.74 0.71 61 1012.4
20260507035426 13 324 1.6 8.0 0.00 0.74 0.71 60 1012.3
20260507035126 13 279 0.0 4.8 0.00 0.74 0.71 60 1012.4
20260507034829 13 294 0.0 4.8 0.00 0.74 0.71 60 1012.4
20260507034526 13 267 0.0 4.8 0.00 0.74 0.71 60 1012.5
20260507034215 13 23 0.0 4.8 0.00 0.74 0.71 60 1012.4
20260507033446 13 264 0.0 8.0 0.00 0.74 0.71 60 1012.3
20260507032306 13 264 1.6 8.0 0.00 0.74 0.71 60 1012.4
20260507031957 13 280 1.6 4.8 0.00 0.74 0.71 60 1012.3
20260507031221 13 295 3.2 14.5 0.00 0.74 0.71 60 1012.3
20260507030908 13 336 1.6 14.5 0.00 0.74 0.71 60 1012.1
20260507030610 13 279 1.6 8.0 0.00 0.74 0.71 59 1011.8
20260507030311 13 301 0.0 6.4 0.00 0.74 0.71 60 1011.7
20260507030005 13 319 0.0 6.4 0.00 0.74 0.71 60 1011.8
20260507025650 13 222 0.0 6.4 0.00 0.74 0.71 59 1011.8
20260507025348 13 326 0.0 6.4 0.00 0.74 0.71 60 1011.8
20260507024633 13 0 1.6 6.4 0.00 0.74 0.71 60 1012.0
20260507024337 13 345 1.6 6.4 0.00 0.74 0.71 60 1012.1
20260507024029 13 319 1.6 6.4 0.00 0.74 0.71 60 1011.6
20260507023716 13 0 0.0 6.4 0.00 0.74 0.71 61 1011.5
20260507023418 13 26 0.0 6.4 0.00 0.74 0.71 61 1011.7
20260507022701 13 335 0.0 8.0 0.00 0.74 0.71 62 1012.0
20260507022359 13 328 0.0 8.0 0.00 0.74 0.71 62 1012.0
20260507022058 13 342 1.6 8.0 0.00 0.74 0.71 62 1011.9
20260507021748 13 15 1.6 17.7 0.00 0.74 0.71 62 1012.0
20260507021446 13 271 1.6 17.7 0.00 0.74 0.71 62 1011.9
20260507021141 13 297 3.2 17.7 0.00 0.74 0.71 62 1011.8
20260507020835 13 317 4.8 17.7 0.00 0.74 0.71 62 1011.5
20260507020528 13 331 4.8 17.7 0.00 0.74 0.71 62 1011.6
20260507015757 14 350 4.8 14.5 0.00 0.74 0.71 63 1011.6
20260507015501 14 349 4.8 14.5 0.00 0.74 0.71 62 1011.6
20260507014727 14 346 4.8 14.5 0.00 0.74 0.71 63 1011.5
20260507014429 14 311 3.2 16.1 0.00 0.74 0.71 62 1011.6
20260507014126 14 300 3.2 16.1 0.00 0.74 0.71 63 1011.8
20260507013828 14 308 3.2 16.1 0.00 0.74 0.71 63 1011.6
20260507013530 14 325 3.2 19.3 0.00 0.74 0.71 62 1011.5
20260507013227 14 242 4.8 19.3 0.00 0.74 0.71 62 1011.3
20260507012926 14 305 4.8 19.3 0.00 0.74 0.71 62 1011.4
20260507012619 14 355 4.8 19.3 0.00 0.74 0.71 62 1011.6
20260507012319 15 274 4.8 19.3 0.00 0.74 0.71 62 1011.5
20260507012009 15 308 4.8 19.3 0.00 0.74 0.71 62 1011.5
20260507011707 15 338 4.8 19.3 0.00 0.74 0.71 62 1011.6
20260507011410 15 331 4.8 12.9 0.00 0.74 0.71 63 1011.4
20260507011104 15 342 4.8 12.9 0.00 0.74 0.71 63 1011.5
20260507010342 15 316 3.2 12.9 0.00 0.74 0.71 62 1011.6
20260507005614 15 311 1.6 11.3 0.00 0.74 0.71 62 1011.4
20260507005306 15 346 1.6 11.3 0.00 0.74 0.71 61 1011.3
20260507004953 15 331 1.6 11.3 0.00 0.74 0.71 61 1011.3
20260507004230 15 344 1.6 12.9 0.00 0.74 0.71 61 1011.2
20260507003924 16 26 1.6 12.9 0.00 0.74 0.71 62 1011.1
20260507003614 16 173 3.2 12.9 0.00 0.74 0.71 62 1011.0
20260507002857 16 295 1.6 12.9 0.00 0.74 0.71 61 1010.9
20260507002126 16 291 0.0 12.9 0.00 0.74 0.71 61 1011.1
20260507001821 16 192 1.6 12.9 0.00 0.74 0.71 60 1011.0
20260507001523 16 243 1.6 12.9 0.00 0.74 0.71 60 1010.9
20260507001222 16 279 1.6 17.7 0.00 0.74 0.71 60 1010.6
20260507000915 16 304 1.6 17.7 0.00 0.74 0.71 60 1010.4
20260507000615 16 310 3.2 17.7 0.00 0.74 0.71 60 1010.3
20260507000321 16 168 4.8 17.7 0.00 0.74 0.71 59 1010.2
20260507000012 16 278 3.2 17.7 0.00 0.74 0.71 59 1010.2
20260506235713 16 277 3.2 17.7 0.00 0.74 0.71 59 1010.1
20260506235402 16 286 4.8 17.7 0.00 0.74 0.71 59 1010.0
20260506235101 16 273 4.8 17.7 0.00 0.74 0.71 59 1010.0
20260506234754 16 280 4.8 17.7 0.00 0.74 0.71 59 1009.9
20260506234445 16 281 4.8 14.5 0.00 0.74 0.71 59 1009.7
20260506234132 16 284 4.8 14.5 0.00 0.74 0.71 59 1009.6
20260506233822 16 204 4.8 14.5 0.00 0.74 0.71 59 1009.7
20260506233526 17 310 3.2 14.5 0.00 0.74 0.71 59 1009.7
20260506233221 17 248 3.2 14.5 0.00 0.74 0.71 59 1009.4
20260506232918 17 260 3.2 12.9 0.00 0.74 0.71 59 1009.4
20260506232608 17 264 3.2 9.7 0.00 0.74 0.71 59 1009.3
20260506232300 17 223 3.2 9.7 0.00 0.74 0.71 60 1009.2
20260506231950 17 285 1.6 16.1 0.00 0.74 0.71 60 1009.2
20260506231641 17 297 1.6 16.1 0.00 0.74 0.71 59 1009.3
20260506231334 17 281 3.2 16.1 0.00 0.74 0.71 59 1009.3
20260506231033 17 299 4.8 16.1 0.00 0.74 0.71 59 1009.2
20260506230720 17 277 6.4 16.1 0.00 0.74 0.71 59 1009.4
20260506230415 17 340 6.4 16.1 0.00 0.74 0.71 59 1009.4
20260506230111 17 275 4.8 14.5 0.00 0.74 0.71 59 1009.3
20260506225809 17 284 3.2 19.3 0.00 0.74 0.71 61 1009.3
20260506225457 17 284 4.8 19.3 0.00 0.74 0.71 61 1009.2
20260506225159 18 274 6.4 19.3 0.00 0.74 0.71 61 1009.2
20260506224442 18 318 8.0 19.3 0.00 0.74 0.71 60 1009.2
20260506224145 18 294 6.4 19.3 0.00 0.74 0.71 61 1009.0
20260506223844 18 275 6.4 17.7 0.00 0.74 0.71 60 1009.0
20260506223543 18 279 6.4 17.7 0.00 0.74 0.71 60 1009.0
20260506222819 18 275 6.4 12.9 0.00 0.74 0.71 61 1008.8
20260506222511 18 296 4.8 12.9 0.00 0.74 0.71 61 1008.8
20260506222159 19 312 4.8 16.1 0.00 0.74 0.71 62 1008.8
20260506221858 19 257 4.8 16.1 0.00 0.74 0.71 62 1008.5
20260506221602 19 303 4.8 16.1 0.00 0.74 0.71 62 1008.5
20260506221303 19 275 6.4 16.1 0.00 0.74 0.71 62 1008.5
20260506221005 19 316 4.8 16.1 0.00 0.74 0.71 62 1008.4
20260506220249 19 225 3.2 9.7 0.00 0.74 0.71 64 1008.3
20260506215951 19 336 3.2 9.7 0.00 0.74 0.71 64 1008.2
20260506215656 19 248 3.2 14.5 0.00 0.74 0.71 64 1008.1
20260506215343 19 73 3.2 14.5 0.00 0.74 0.71 64 1008.0
20260506215041 19 167 3.2 14.5 0.00 0.74 0.71 64 1008.1
20260506214730 19 227 3.2 14.5 0.00 0.74 0.71 64 1008.1
20260506214433 19 277 3.2 14.5 0.00 0.74 0.71 64 1008.0
20260506213655 19 271 3.2 12.9 0.00 0.74 0.71 64 1007.9
20260506212517 20 256 3.2 11.3 0.00 0.74 0.71 64 1007.7
20260506212220 20 347 3.2 11.3 0.00 0.74 0.71 64 1007.7
20260506211914 20 217 1.6 11.3 0.00 0.74 0.71 64 1007.5
20260506211610 20 301 3.2 11.3 0.00 0.74 0.71 64 1007.6
20260506211306 20 5 3.2 11.3 0.00 0.74 0.71 64 1007.5
20260506210551 20 171 1.6 8.0 0.00 0.74 0.71 65 1007.5
20260506210254 20 215 1.6 9.7 0.00 0.74 0.71 65 1007.4
20260506205532 19 209 1.6 9.7 0.00 0.74 0.71 64 1007.3
20260506205226 20 221 1.6 9.7 0.00 0.74 0.71 64 1007.4
20260506204924 20 251 1.6 9.7 0.00 0.74 0.71 65 1007.3
20260506204621 20 202 0.0 9.7 0.00 0.74 0.71 64 1007.2
20260506204318 20 254 0.0 9.7 0.00 0.74 0.71 65 1007.4
20260506204006 20 217 1.6 9.7 0.00 0.74 0.71 65 1007.4
20260506203652 20 227 1.6 9.7 0.00 0.74 0.71 64 1007.3
20260506203343 20 223 3.2 9.7 0.00 0.74 0.71 64 1007.2
20260506203041 20 218 3.2 14.5 0.00 0.74 0.71 64 1007.2
20260506202740 20 228 3.2 14.5 0.00 0.74 0.71 64 1007.3
20260506202025 20 253 3.2 17.7 0.00 0.74 0.71 64 1007.2
20260506201714 20 282 3.2 17.7 0.00 0.74 0.71 64 1007.2
20260506201417 20 275 4.8 17.7 0.00 0.74 0.71 64 1007.2
20260506201105 20 257 4.8 17.7 0.00 0.74 0.71 65 1007.3
20260506200804 20 33 6.4 17.7 0.00 0.74 0.71 64 1007.2
20260506200455 20 273 4.8 17.7 0.00 0.74 0.71 64 1007.3
20260506200146 20 297 4.8 16.1 0.00 0.74 0.71 64 1007.3
20260506195836 20 211 4.8 16.1 0.00 0.74 0.71 64 1007.3
20260506195056 20 234 4.8 16.1 0.00 0.74 0.71 66 1007.2
20260506194327 19 263 3.2 20.9 0.00 0.74 0.71 66 1007.2
20260506193553 18 126 4.8 20.9 0.00 0.74 0.71 66 1007.4
20260506192825 18 184 4.8 20.9 0.00 0.74 0.71 67 1007.6
20260506192106 18 169 3.2 12.9 0.00 0.74 0.71 67 1007.7
20260506191757 18 215 3.2 11.3 0.00 0.74 0.71 67 1007.7
20260506191450 18 222 3.2 11.3 0.00 0.74 0.71 67 1007.7
20260506191136 18 222 3.2 14.5 0.00 0.74 0.71 67 1007.8
20260506190833 17 248 3.2 14.5 0.00 0.74 0.71 68 1007.7
20260506190523 17 257 3.2 14.5 0.00 0.74 0.71 68 1007.7
20260506190216 17 298 3.2 14.5 0.00 0.74 0.71 68 1007.8
20260506185908 17 176 3.2 14.5 0.00 0.74 0.71 68 1007.7
20260506185137 17 218 3.2 9.7 0.00 0.74 0.71 70 1007.8
20260506184826 17 200 1.6 8.0 0.00 0.74 0.71 72 1007.9
20260506184528 17 250 3.2 8.0 0.00 0.74 0.71 74 1007.8
20260506184215 17 309 3.2 8.0 0.00 0.74 0.71 74 1007.8
20260506183911 17 215 1.6 8.0 0.00 0.74 0.71 77 1007.8
20260506183149 17 355 0.0 1.6 0.00 0.74 0.71 77 1007.9
20260506182424 17 92 0.0 8.0 0.00 0.74 0.71 77 1007.9
20260506182120 17 39 0.0 8.0 0.00 0.74 0.71 78 1007.9
20260506181824 17 102 0.0 8.0 0.00 0.74 0.71 78 1007.9
20260506180634 17 117 0.0 4.8 0.00 0.74 0.71 78 1007.9
20260506180325 17 86 1.6 4.8 0.00 0.74 0.71 78 1007.9
20260506180027 17 81 0.0 4.8 0.00 0.74 0.71 78 1007.9
20260506175718 17 67 0.0 3.2 0.00 0.74 0.71 78 1008.1
20260506175415 17 59 0.0 1.6 0.00 0.74 0.71 78 1008.0
20260506175103 17 84 0.0 1.6 0.00 0.74 0.71 78 1008.0
20260506174803 16 84 0.0 1.6 0.00 0.74 0.71 78 1008.0
20260506174500 16 87 1.6 4.8 0.00 0.74 0.71 78 1008.0
20260506174156 16 71 1.6 4.8 0.00 0.74 0.71 78 1008.0
20260506173854 16 101 0.0 4.8 0.00 0.74 0.71 78 1007.9
20260506173544 16 124 0.0 3.2 0.00 0.74 0.71 78 1007.9
20260506173241 16 101 0.0 3.2 0.00 0.74 0.71 78 1007.9
20260506172935 16 86 0.0 3.2 0.00 0.74 0.71 78 1007.9
20260506172626 16 97 0.0 3.2 0.00 0.74 0.71 78 1008.1
20260506172316 16 101 0.0 1.6 0.00 0.74 0.71 78 1008.0
20260506170705 16 74 0.0 0.0 0.00 0.74 0.71 77 1008.1
20260506170408 16 80 0.0 0.0 0.00 0.74 0.71 77 1008.2
20260506170105 16 81 0.0 0.0 0.00 0.74 0.71 76 1008.1
20260506165754 16 323 0.0 0.0 0.00 0.74 0.71 76 1008.2
20260506165449 16 323 0.0 0.0 0.00 0.74 0.71 76 1008.1
20260506165145 16 331 0.0 1.6 0.00 0.74 0.71 76 1008.2
20260506164845 16 322 0.0 1.6 0.00 0.74 0.71 76 1008.2
20260506164545 16 32 0.0 0.0 0.00 0.74 0.71 76 1008.1
20260506164235 16 39 0.0 3.2 0.00 0.74 0.71 76 1008.0
20260506163924 16 13 0.0 3.2 0.00 0.74 0.71 76 1008.1
20260506162751 16 305 0.0 3.2 0.00 0.74 0.71 76 1008.0
20260506162039 16 5 0.0 3.2 0.00 0.74 0.71 77 1008.2
20260506160844 16 113 0.0 0.0 0.00 0.74 0.71 77 1008.0
20260506160548 16 113 0.0 4.8 0.00 0.74 0.71 77 1008.0
20260506160251 16 175 0.0 9.7 0.00 0.74 0.71 77 1008.1
20260506155945 16 169 0.0 9.7 0.00 0.74 0.71 77 1008.1
20260506155636 16 246 0.0 9.7 0.00 0.74 0.71 77 1008.1
20260506155327 16 269 1.6 9.7 0.00 0.74 0.71 77 1008.0
20260506155030 16 253 1.6 9.7 0.00 0.74 0.71 77 1007.8
20260506154300 16 236 0.0 1.6 0.00 0.74 0.71 77 1007.9
20260506154004 16 119 0.0 0.0 0.00 0.74 0.71 77 1007.9
20260506153243 16 300 0.0 0.0 0.00 0.74 0.71 77 1007.9
20260506152940 16 300 0.0 0.0 0.00 0.74 0.71 77 1007.9
20260506152218 16 300 0.0 0.0 0.00 0.74 0.71 76 1008.1
20260506151907 16 313 0.0 0.0 0.00 0.74 0.71 76 1008.0
20260506151136 16 11 0.0 1.6 0.10 0.74 0.71 74 1007.6
20260506150824 16 301 0.0 1.6 0.13 0.74 0.71 74 1007.5
20260506150512 16 294 0.0 1.6 0.15 0.74 0.71 74 1007.6
20260506150215 16 9 0.0 0.0 0.20 0.74 0.71 74 1007.5
20260506145441 16 336 0.0 0.0 0.23 0.69 0.69 74 1007.8
20260506145140 16 286 0.0 0.0 0.43 0.69 0.69 74 1008.1
20260506144831 16 286 0.0 1.6 0.48 0.66 0.69 73 1008.1
20260506144526 16 190 0.0 0.0 0.23 0.66 0.69 71 1008.1
20260506144226 16 173 0.0 0.0 0.38 0.66 0.66 71 1008.0
20260506143456 16 143 0.0 8.0 0.30 0.61 0.61 70 1008.3
20260506142737 15 220 0.0 8.0 0.41 0.58 0.58 69 1008.5
20260506142426 16 167 0.0 8.0 0.53 0.53 0.53 69 1008.5
20260506142115 16 192 0.0 8.0 0.41 0.53 0.53 68 1008.5
20260506141801 16 185 0.0 8.0 0.41 0.48 0.51 69 1008.7
20260506141458 16 210 0.0 4.8 0.38 0.48 0.48 68 1008.7
20260506141157 16 134 0.0 0.0 0.43 0.46 0.46 68 1008.7
20260506140850 16 109 1.6 12.9 0.53 0.41 0.46 68 1008.6
20260506140126 16 134 1.6 12.9 0.69 0.33 0.33 68 1008.5
20260506135819 16 220 1.6 12.9 0.33 0.30 0.33 68 1008.6
20260506135510 16 198 3.2 12.9 0.89 0.30 0.30 68 1008.6
20260506134739 16 167 3.2 9.7 0.10 0.23 0.25 68 1008.4
20260506134438 16 214 3.2 9.7 0.13 0.23 0.25 68 1008.3
20260506133709 16 244 1.6 8.0 0.15 0.23 0.25 68 1008.3
20260506132516 15 150 0.0 3.2 0.20 0.23 0.23 67 1008.3
20260506132216 15 232 0.0 0.0 0.23 0.20 0.20 67 1008.3
20260506131906 15 231 0.0 0.0 0.25 0.20 0.20 67 1008.3
20260506130726 16 39 0.0 3.2 0.00 0.15 0.15 66 1008.2
20260506125951 16 290 0.0 0.0 0.00 0.15 0.15 66 1008.6
20260506125652 16 299 0.0 0.0 0.00 0.15 0.15 66 1008.5
20260506125350 16 224 0.0 0.0 0.00 0.15 0.15 66 1008.4
20260506125049 16 173 0.0 0.0 0.00 0.15 0.15 66 1008.4
20260506124339 16 248 0.0 0.0 0.00 0.15 0.15 66 1008.3
20260506123150 16 123 0.0 3.2 0.00 0.10 0.13 66 1008.4
20260506122846 16 67 0.0 1.6 0.00 0.10 0.13 66 1008.5
20260506122546 16 246 0.0 1.6 0.10 0.10 0.13 66 1008.6
20260506122250 16 218 0.0 0.0 0.10 0.10 0.13 65 1008.7
20260506121534 16 81 0.0 0.0 0.10 0.10 0.13 65 1008.6
20260506121229 16 81 0.0 0.0 0.10 0.10 0.13 65 1008.6
20260506120925 16 81 0.0 0.0 0.10 0.10 0.13 65 1008.6
20260506120618 16 81 0.0 0.0 0.13 0.10 0.10 64 1008.7
20260506120317 16 81 0.0 0.0 0.15 0.10 0.10 65 1008.8
20260506120019 16 81 0.0 0.0 0.15 0.10 0.10 64 1008.7
20260506115717 16 80 0.0 0.0 0.15 0.10 0.10 65 1008.8
20260506114946 16 63 0.0 0.0 0.15 0.08 0.08 64 1008.7
20260506114639 16 63 0.0 6.4 0.15 0.08 0.08 64 1008.7
20260506114326 16 152 1.6 6.4 0.10 0.05 0.05 63 1008.9
20260506114019 16 161 0.0 4.8 0.10 0.05 0.05 63 1008.9
20260506113251 17 156 0.0 4.8 0.00 0.03 0.03 62 1008.6
20260506112946 17 194 0.0 4.8 0.00 0.03 0.03 61 1008.7
20260506112640 17 216 0.0 0.0 0.00 0.03 0.03 60 1008.5
20260506112341 17 117 0.0 11.3 0.00 0.03 0.03 60 1008.5
20260506112042 17 236 1.6 11.3 0.00 0.03 0.03 59 1008.5
20260506111743 17 186 1.6 11.3 0.00 0.00 0.00 58 1008.3
20260506111433 17 222 1.6 11.3 0.00 0.00 0.00 57 1008.3